Regional Weather Roundup
Issued by NWS Binghamton, NY

Home | Current Version | Previous Version | Text Only | Print | Product List | Glossary On
Versions: 1 2 3 4 5 6 7 8 9 10 11 12 13 14 15 16 17 18 19 20 21 22 23 24 25 26 27 28 29 30 31 32 33 34 35 36 37 38 39 40 41 42 43 44 45 46 47 48 49 50
000
ASUS41 KBGM 211410
RWRBGM
RWRBGM
BINGHAMTON REGIONAL WEATHER ROUNDUP
NATIONAL WEATHER SERVICE BINGHAMTON NY
1000 AM EDT TUE APR 21 2015

Note: "fair" indicates few or no clouds below 12,000 feet with no
significant weather and/or obstructions to visibility.

* = Station(s) that does not report precipitation, such as rain,
snow, etc, also no thunder or fog.

!NYZ009-015>018-022>025-036-037-044>046-055>057-062-211500
...CENTRAL NEW YORK...

CITY           SKY/WX    TMP DP  RH WIND       PRES   REMARKS
BINGHAMTON     PTSUNNY   47  39  74 W15       29.63S
CORTLAND       PTSUNNY   48  37  66 W10G22    29.63S
DANSVILLE      PTSUNNY   53  34  48 VRB6      29.65R
ELMIRA         MOSUNNY   51  33  50 W21G28    29.65R
ITHACA         PTSUNNY   48  36  61 W10       29.65R
MONTICELLO     CLOUDY    45  45 100 W7        29.66S
PENN YAN       CLOUDY    50  35  56 SW20      29.63R
ROME           LGT RAIN  44  40  85 NW3       29.64R FOG
SYRACUSE       PTSUNNY   49  42  77 S6        29.62R
$$

!PAZ038>040-043-044-047-048-072-211500
...NORTHEAST PENNSYLVANIA...

CITY           SKY/WX    TMP DP  RH WIND       PRES   REMARKS
HAZLETON       MOSUNNY   50  32  50 W8G25     29.71R
SCRANTON       MOSUNNY   53  35  50 SW18G29   29.67R
TOWANDA*       SUNNY     52  30  43 SW17G25   29.67S
$$
&&
KEY
WCI = WIND CHILL INDEX
VSB = VISIBILITY
HX  = HEAT INDEX
$$



USA.gov is the U.S. government's official web portal to all federal, state and local government web resources and services.